Погода в Новополоцке

Беларусь     55°32′07″N   28°38′43″E
темп.,
°C
ветер,
м/с
пор.,
м/с
влажн.,
%
обл.,
%
осадки,
мм/ч
давл.,
гПа
погр.,
м
12 апреля, пн
пн1200:00+9ююв312816 0.0 1026258
03:00+7ююв3118298 0.0 1027229
06:00+6юв3108175 0.0 1027210
09:00+10ююв411655 0.0 1026426
12:00+15ююв69450 0.0 10251345
15:00+16ююв68380 0.0 10231607
18:00+15юв5844100 0.0 10211399
21:00+10юв41161100 0.0 1021355
13 апреля, вт
вт1300:00+8юв4984100 0.0 1022319
03:00+7ююв2697100 0.0 1021150
06:00+6ююв2395100 0.0 102154
09:00+10ююв2374100 0.0 1020231
12:00+15ююв234890 0.0 1020927
15:00+17ююв2338100 0.0 10191507
18:00+14юв4571100 0.1 1018357
21:00+11ююв1292100 0.4 101899
14 апреля, ср
ср1400:00+8с4891100 1.4 1017299
03:00+7ссз3794100 3.9 1016344
06:00+6ссз4895100 4.1 1016429
09:00+5с4794100 6.1 1017402
12:00+5с3593100 0.7 1018411
15:00+4с3692100 1.0 1018357
18:00+5с4590100 0.1 1018399
21:00+4с489385 0.1 1019315
15 апреля, чт
чт1500:00+4ссв499588 0.0 1018298
03:00+3ссв4109699 0.0 1018353
06:00+4ссв41096100 0.1 1018412
09:00+4ссв41195100 3.3 1018490
12:00+4ссв4995100 5.6 1018470
15:00+5ссв4893100 6.6 1018420
18:00+5ссв4994100 0.0 1018429
21:00+5ссв41195100 0.0 1018418
16 апреля, пт
пт1600:00+5ссв41096100 0.0 1018422
03:00+6ссв4997100 1.5 1017299
06:00+7св61395100 0.1 1017527
09:00+9св61287100 0.3 1018632
12:00+9св61285100 0.1 1019760
15:00+9св61387100 0.5 1019919
18:00+9св7138898 0.6 1020859
21:00+9св61484100 0.6 1021985